GW4598 Weather Reports


time (UTC)temp
F
wind
direction
speed
knots
gust
knots
rain 1hr
in
rain 24hr
in
rain mn
in
humidity
%
barometer
mb
20260507221523 55 218 6.1 7.0 0.00 0.00 0.00 43 1007.0
20260507221020 56 234 7.0 7.8 0.00 0.00 0.00 44 1007.1
20260507220517 56 214 2.6 5.2 0.00 0.00 0.00 44 1007.0
20260507220015 56 181 1.7 1.7 0.00 0.00 0.00 44 1007.1
20260507215510 57 234 4.3 5.2 0.00 0.00 0.00 47 1007.0
20260507215009 57 123 0.9 1.7 0.00 0.00 0.00 40 1007.1
20260507214505 56 218 7.8 11.3 0.00 0.00 0.00 43 1007.1
20260507214001 57 250 5.2 6.1 0.00 0.00 0.00 45 1007.0
20260507213458 56 233 7.0 7.8 0.00 0.00 0.00 44 1006.9
20260507212954 57 255 1.7 1.7 0.00 0.00 0.00 40 1006.9
20260507212450 57 245 2.6 2.6 0.00 0.00 0.00 39 1006.8
20260507211947 57 124 0.9 0.9 0.00 0.00 0.00 42 1006.9
20260507211443 57 275 3.5 4.3 0.00 0.00 0.00 40 1006.9
20260507210940 57 170 0.9 1.7 0.00 0.00 0.00 41 1006.8
20260507210438 56 225 2.6 2.6 0.00 0.00 0.00 43 1006.8
20260507205934 56 286 4.3 6.1 0.00 0.00 0.00 42 1007.0
20260507205432 57 236 3.5 5.2 0.00 0.00 0.00 42 1006.9
20260507204928 57 226 4.3 7.0 0.00 0.00 0.00 43 1006.8
20260507204424 57 239 7.8 9.6 0.00 0.00 0.00 46 1006.7
20260507203922 57 261 4.3 6.1 0.00 0.00 0.00 46 1006.8
20260507203420 57 133 2.6 2.6 0.00 0.00 0.00 41 1006.7
20260507202916 57 196 3.5 4.3 0.00 0.00 0.00 46 1006.8
20260507202412 56 29 2.6 2.6 0.00 0.00 0.00 46 1006.7
20260507201908 57 123 0.0 0.9 0.00 0.00 0.00 48 1006.7
20260507201403 56 233 2.6 2.6 0.00 0.00 0.00 43 1006.8
20260507200900 57 229 4.3 6.1 0.00 0.00 0.00 44 1006.8
20260507200356 58 76 0.9 0.9 0.00 0.00 0.00 44 1006.8
20260507195852 58 232 6.1 7.8 0.00 0.00 0.00 44 1006.8
20260507195350 57 169 1.7 1.7 0.00 0.00 0.00 48 1007.0
20260507194847 58 240 2.6 2.6 0.00 0.00 0.00 44 1006.9
20260507194343 58 246 2.6 4.3 0.00 0.00 0.00 43 1007.1
20260507193840 57 82 0.9 1.7 0.00 0.00 0.00 47 1007.0
20260507193337 57 237 2.6 2.6 0.00 0.00 0.00 47 1007.0
20260507192833 57 323 7.0 9.6 0.00 0.00 0.00 50 1006.9
20260507192330 57 226 4.3 6.1 0.00 0.00 0.00 46 1007.2
20260507191826 56 307 2.6 2.6 0.00 0.00 0.00 44 1007.0
20260507191322 56 246 1.7 1.7 0.00 0.00 0.00 48 1007.1
20260507190819 56 54 1.7 1.7 0.00 0.00 0.00 46 1007.2
20260507190318 57 118 0.9 0.9 0.00 0.00 0.00 46 1007.3
20260507185816 58 296 2.6 4.3 0.00 0.00 0.00 45 1007.4
20260507185313 57 297 1.7 2.6 0.00 0.00 0.00 44 1007.3
20260507184810 57 351 2.6 5.2 0.00 0.00 0.00 49 1007.2
20260507184308 57 174 0.9 1.7 0.00 0.00 0.00 47 1007.2
20260507183804 55 272 3.5 4.3 0.00 0.00 0.00 49 1007.4
20260507183301 56 162 1.7 1.7 0.00 0.00 0.00 48 1007.5
20260507182800 56 71 0.9 0.9 0.00 0.00 0.00 49 1007.5
20260507182300 56 241 2.6 2.6 0.00 0.00 0.00 51 1007.4
20260507181756 57 225 2.6 4.3 0.00 0.00 0.00 49 1007.4
20260507181253 57 57 1.7 1.7 0.00 0.00 0.00 45 1007.4
20260507180749 57 212 2.6 2.6 0.00 0.00 0.00 53 1007.4
20260507180246 56 92 1.7 2.6 0.00 0.00 0.00 52 1007.5
20260507175742 58 311 3.5 4.3 0.00 0.00 0.00 45 1007.5
20260507175234 57 219 2.6 2.6 0.00 0.00 0.00 48 1007.3
20260507174731 57 240 4.3 5.2 0.00 0.00 0.00 51 1007.3
20260507174229 58 163 2.6 4.3 0.00 0.00 0.00 44 1007.3
20260507173727 57 41 2.6 2.6 0.00 0.00 0.00 42 1007.4
20260507173223 56 110 2.6 4.3 0.00 0.00 0.00 52 1007.5
20260507172719 55 247 4.3 6.1 0.00 0.00 0.00 52 1007.5
20260507172216 56 97 1.7 1.7 0.00 0.00 0.00 50 1007.6
20260507171711 57 238 4.3 6.1 0.00 0.00 0.00 51 1007.6
20260507171209 56 223 4.3 5.2 0.00 0.00 0.00 56 1007.5
20260507170705 54 63 0.9 0.9 0.00 0.00 0.00 57 1007.7
20260507170202 55 216 2.6 2.6 0.00 0.00 0.00 60 1007.8
20260507165657 55 157 2.6 2.6 0.00 0.00 0.00 60 1007.7
20260507165148 55 210 4.3 5.2 0.00 0.00 0.00 61 1008.0
20260507164644 55 168 3.5 5.2 0.00 0.00 0.00 65 1007.8
20260507164142 53 61 0.9 1.7 0.00 0.00 0.00 68 1008.0
20260507163638 53 221 3.5 4.3 0.00 0.00 0.00 70 1007.9
20260507163137 53 97 0.9 0.9 0.00 0.00 0.00 70 1008.1
20260507162632 54 172 1.7 2.6 0.00 0.00 0.00 69 1008.1
20260507162129 54 239 5.2 6.1 0.00 0.00 0.00 66 1007.9
20260507161625 54 227 2.6 2.6 0.00 0.00 0.00 63 1008.0
20260507161122 53 246 3.5 5.2 0.00 0.00 0.00 69 1007.8
20260507160618 54 249 3.5 5.2 0.00 0.00 0.00 65 1007.9
20260507160115 54 229 4.3 5.2 0.00 0.00 0.00 63 1008.0
20260507155609 54 248 4.3 5.2 0.00 0.00 0.00 68 1008.0
20260507155106 54 241 3.5 5.2 0.00 0.00 0.00 67 1008.2
20260507154603 54 224 6.1 7.0 0.00 0.00 0.00 67 1008.2
20260507154100 53 241 6.1 7.0 0.00 0.00 0.00 69 1008.4
20260507153552 54 245 4.3 6.1 0.00 0.00 0.00 65 1008.6
20260507153048 54 222 2.6 2.6 0.00 0.00 0.00 67 1008.7
20260507152544 54 220 1.7 2.6 0.00 0.00 0.00 67 1008.5
20260507152040 54 169 2.6 2.6 0.00 0.00 0.00 68 1008.5
20260507151536 54 53 2.6 4.3 0.00 0.00 0.00 66 1008.6
20260507151033 54 303 2.6 5.2 0.00 0.00 0.00 67 1008.6
20260507150530 54 176 1.7 2.6 0.00 0.00 0.00 65 1008.5
20260507150022 55 233 2.6 4.3 0.00 0.00 0.00 66 1008.6
20260507145516 54 221 0.9 0.9 0.00 0.00 0.00 66 1008.4
20260507145015 54 231 2.6 2.6 0.00 0.00 0.00 67 1008.5
20260507144511 54 37 2.6 4.3 0.00 0.00 0.00 66 1008.6
20260507144009 53 198 4.3 8.7 0.00 0.00 0.00 67 1008.4
20260507143506 53 229 4.3 5.2 0.00 0.00 0.00 69 1008.4
20260507143003 54 211 7.0 8.7 0.00 0.00 0.00 63 1008.2
20260507142458 54 218 6.1 8.7 0.00 0.00 0.00 70 1008.2
20260507141955 55 259 1.7 1.7 0.00 0.00 0.00 64 1008.4
20260507141451 54 29 2.6 2.6 0.00 0.00 0.00 68 1008.0
20260507140948 54 17 1.7 1.7 0.00 0.00 0.00 67 1008.1
20260507140444 55 233 3.5 4.3 0.00 0.00 0.00 65 1008.2
20260507135942 54 299 1.7 1.7 0.00 0.00 0.00 62 1008.4
20260507135439 54 114 0.9 0.9 0.00 0.00 0.00 67 1008.5
20260507134936 53 42 2.6 2.6 0.00 0.00 0.00 63 1008.1
20260507134432 53 225 3.5 5.2 0.00 0.00 0.00 65 1008.4
20260507133928 54 195 4.3 5.2 0.00 0.00 0.00 63 1008.4
20260507133424 54 131 0.9 1.7 0.00 0.00 0.00 66 1008.5
20260507132917 53 23 1.7 2.6 0.00 0.00 0.00 64 1008.5
20260507132412 53 145 1.7 1.7 0.00 0.00 0.00 66 1008.6
20260507131909 52 258 2.6 4.3 0.00 0.00 0.00 69 1008.6
20260507131407 52 58 0.9 0.9 0.00 0.00 0.00 68 1008.6
20260507130904 53 137 0.0 0.9 0.00 0.00 0.00 67 1008.7
20260507130401 52 7 0.9 1.7 0.00 0.00 0.00 65 1008.7
20260507125900 51 309 1.7 1.7 0.00 0.00 0.00 68 1008.6
20260507125356 51 280 1.7 1.7 0.00 0.00 0.00 74 1008.6
20260507124854 52 125 0.9 1.7 0.00 0.00 0.00 68 1008.7
20260507124350 51 177 0.9 1.7 0.00 0.00 0.00 72 1008.6
20260507123849 52 213 2.6 2.6 0.00 0.00 0.00 70 1008.7
20260507123345 52 84 0.9 1.7 0.00 0.00 0.00 70 1008.9
20260507122842 51 69 0.9 0.9 0.00 0.00 0.00 76 1008.7
20260507122337 52 229 3.5 5.2 0.00 0.00 0.00 72 1008.8
20260507121834 51 56 0.9 0.9 0.00 0.00 0.00 72 1008.6
20260507121329 51 51 0.9 1.7 0.00 0.00 0.00 74 1008.7
20260507120826 52 80 0.9 2.6 0.00 0.00 0.00 72 1008.8
20260507120322 51 108 0.0 0.0 0.00 0.00 0.00 75 1008.7
20260507115819 50 185 2.6 2.6 0.00 0.00 0.00 76 1008.6
20260507115315 50 160 0.9 0.9 0.00 0.00 0.00 77 1008.7
20260507114811 50 107 0.9 0.9 0.00 0.00 0.00 77 1008.6
20260507114308 49 75 0.0 0.9 0.00 0.00 0.00 83 1008.8
20260507113805 48 131 0.9 1.7 0.00 0.00 0.00 83 1008.9
20260507113302 48 173 1.7 1.7 0.00 0.00 0.00 83 1008.8
20260507112800 48 129 0.0 0.9 0.00 0.00 0.00 84 1008.7
20260507112256 47 67 0.9 0.9 0.00 0.00 0.00 85 1008.6
20260507111754 46 41 1.7 1.7 0.00 0.00 0.00 87 1008.7
20260507111245 46 108 0.9 0.9 0.00 0.00 0.00 88 1008.7
20260507110741 45 106 0.9 0.9 0.00 0.00 0.00 89 1008.6
20260507110238 45 75 0.0 0.0 0.00 0.00 0.00 90 1008.5
20260507105735 44 80 0.0 0.0 0.00 0.00 0.00 90 1008.5
20260507105230 45 81 0.0 0.0 0.00 0.00 0.00 91 1008.7
20260507104728 45 74 0.0 0.0 0.00 0.00 0.00 91 1008.6
20260507104225 45 89 0.0 0.0 0.00 0.00 0.00 91 1008.6
20260507103720 44 103 0.0 0.0 0.00 0.00 0.00 91 1008.7
20260507103216 44 144 0.9 0.9 0.00 0.00 0.00 92 1008.4
20260507102713 44 67 0.9 0.9 0.00 0.00 0.00 92 1008.2
20260507102210 44 41 0.9 0.9 0.00 0.00 0.00 92 1008.6
20260507101706 45 101 0.0 0.0 0.00 0.00 0.00 93 1008.8
20260507101201 45 100 0.0 0.9 0.00 0.00 0.00 93 1008.9
20260507100659 45 81 0.0 0.0 0.00 0.00 0.00 93 1008.6
20260507100157 44 91 0.0 0.0 0.00 0.00 0.00 92 1008.6
20260507095655 45 77 0.0 0.0 0.00 0.00 0.00 92 1009.0
20260507095151 45 103 0.0 0.9 0.00 0.00 0.00 93 1008.8
20260507094647 45 75 0.0 0.0 0.00 0.00 0.00 92 1008.7
20260507094144 45 105 0.0 0.0 0.00 0.00 0.00 93 1008.7
20260507093641 45 111 0.0 0.9 0.00 0.00 0.00 92 1008.6
20260507093141 45 72 0.9 0.9 0.00 0.00 0.00 93 1008.7
20260507092636 45 71 0.9 0.9 0.00 0.00 0.00 93 1008.2
20260507092133 45 82 0.0 0.9 0.00 0.00 0.00 94 1008.5
20260507091630 45 172 0.9 0.9 0.00 0.00 0.00 94 1008.7
20260507091126 44 270 1.7 2.6 0.00 0.00 0.00 93 1008.2
20260507090622 45 83 0.0 0.0 0.00 0.00 0.00 94 1008.1
20260507090120 45 99 0.0 0.0 0.00 0.00 0.00 94 1008.0
20260507085616 45 32 1.7 1.7 0.00 0.00 0.00 93 1008.0
20260507085113 45 166 0.9 1.7 0.00 0.00 0.00 94 1007.9
20260507084610 45 98 0.0 0.0 0.00 0.00 0.00 93 1008.0
20260507084106 45 16 0.9 1.7 0.00 0.00 0.00 93 1008.0
20260507083603 45 74 0.0 0.0 0.00 0.00 0.00 93 1008.2
20260507083100 45 80 0.0 0.9 0.00 0.00 0.00 93 1008.1
20260507082555 45 83 0.0 0.0 0.00 0.00 0.00 93 1007.8
20260507082052 45 67 0.0 0.9 0.00 0.00 0.00 93 1007.9
20260507081548 45 110 0.0 0.9 0.00 0.00 0.00 93 1008.2
20260507081045 46 80 0.9 0.9 0.00 0.00 0.00 93 1008.1
20260507080541 46 63 0.0 0.9 0.00 0.00 0.00 93 1008.2
20260507080038 46 84 0.0 0.9 0.00 0.00 0.00 93 1008.0
20260507075533 45 71 0.0 0.0 0.00 0.00 0.00 92 1007.8
20260507075030 45 105 0.0 0.0 0.00 0.00 0.00 92 1007.6
20260507074527 46 73 0.0 0.0 0.00 0.00 0.00 92 1007.7
20260507074026 46 53 0.9 1.7 0.00 0.00 0.00 92 1007.5
20260507073521 46 78 0.0 0.9 0.00 0.00 0.00 92 1007.9
20260507073018 46 335 1.7 1.7 0.00 0.00 0.00 92 1007.8
20260507072515 46 72 0.9 1.7 0.00 0.00 0.00 92 1007.5
20260507072013 46 110 0.0 0.9 0.00 0.00 0.00 93 1007.5
20260507071510 46 315 1.7 1.7 0.00 0.00 0.00 93 1007.5
20260507071006 46 28 1.7 1.7 0.00 0.00 0.00 94 1007.6
20260507070504 46 36 0.0 0.9 0.00 0.00 0.00 96 1007.6
20260507070001 46 83 0.0 0.9 0.00 0.00 0.00 97 1007.5
20260507065457 46 56 0.9 0.9 0.00 0.00 0.00 97 1007.6
20260507064954 46 85 0.0 0.0 0.00 0.00 0.00 97 1007.6
20260507064452 46 77 0.0 0.9 0.00 0.00 0.00 97 1007.5
20260507063950 46 81 0.0 0.0 0.00 0.00 0.00 97 1007.3
20260507063447 47 90 0.0 0.0 0.00 0.00 0.00 97 1007.8
20260507062944 46 74 0.0 0.9 0.00 0.00 0.00 96 1007.7
20260507062441 47 76 0.0 0.9 0.00 0.00 0.00 96 1007.3
20260507061938 47 106 0.0 0.0 0.00 0.00 0.00 96 1007.5
20260507061436 47 163 0.9 1.7 0.00 0.00 0.00 96 1007.5
20260507060934 47 74 0.9 0.9 0.00 0.00 0.00 96 1007.6
20260507060431 48 238 1.7 2.6 0.00 0.00 0.00 96 1007.5
20260507055927 48 107 0.0 0.0 0.00 0.00 0.00 95 1007.2
20260507055422 48 102 0.0 0.0 0.00 0.00 0.00 96 1007.3
20260507054914 48 79 0.0 0.0 0.00 0.00 0.00 95 1007.3
20260507054410 48 93 0.9 0.9 0.00 0.00 0.00 96 1007.2
20260507053908 48 65 0.9 0.9 0.00 0.00 0.00 96 1007.1
20260507053405 48 79 0.9 0.9 0.00 0.00 0.00 96 1007.1
20260507052904 48 106 0.9 0.9 0.00 0.00 0.00 96 1007.0
20260507052400 48 169 0.9 0.9 0.00 0.00 0.00 97 1007.3
20260507051857 49 218 2.6 2.6 0.00 0.00 0.00 96 1007.4
20260507051355 48 130 0.0 0.9 0.00 0.00 0.00 96 1007.2
20260507050852 48 76 0.0 0.9 0.00 0.00 0.00 96 1007.2
20260507050348 48 79 0.0 0.0 0.00 0.00 0.00 96 1006.9
20260507045845 49 111 1.7 1.7 0.00 0.00 0.00 96 1006.9
20260507045341 49 203 2.6 2.6 0.00 0.00 0.00 96 1007.1
20260507044833 49 67 0.0 0.0 0.00 0.00 0.00 96 1007.3
20260507044329 49 152 1.7 1.7 0.00 0.00 0.00 96 1007.1
20260507043825 50 106 0.0 0.9 0.00 0.00 0.00 96 1007.2
20260507043322 50 85 0.0 0.0 0.00 0.00 0.00 96 1007.2
20260507042819 50 209 1.7 2.6 0.00 0.00 0.00 96 1007.3
20260507042314 50 239 3.5 4.3 0.00 0.00 0.00 96 1007.2
20260507041811 50 208 1.7 1.7 0.00 0.00 0.00 96 1007.1
20260507041308 49 179 1.7 1.7 0.00 0.00 0.00 97 1007.0
20260507040805 50 193 1.7 1.7 0.00 0.00 0.00 97 1006.8
20260507040301 50 60 0.9 1.7 0.00 0.00 0.00 98 1006.8
20260507035757 50 113 0.9 0.9 0.00 0.20 0.20 98 1007.0
20260507035252 50 77 0.0 0.9 0.00 0.20 0.20 98 1007.0
20260507034750 51 51 0.9 0.9 0.00 0.20 0.20 98 1006.9
20260507034247 51 102 0.0 0.9 0.00 0.20 0.20 98 1006.9
20260507033746 51 148 0.9 0.9 0.00 0.20 0.20 97 1006.9
20260507033243 51 92 1.7 1.7 0.00 0.20 0.20 97 1007.1
20260507032740 52 220 5.2 7.0 0.00 0.20 0.20 96 1006.9
20260507032236 52 244 5.2 7.0 0.00 0.20 0.20 95 1006.9
20260507031732 53 219 2.6 2.6 0.00 0.20 0.20 95 1006.8
20260507031229 53 245 3.5 7.0 0.00 0.20 0.20 97 1006.8
20260507030726 53 263 6.1 7.8 0.00 0.20 0.20 98 1007.1
20260507030224 53 94 1.7 1.7 0.00 0.20 0.20 99 1006.7
20260507025721 54 102 0.0 0.0 0.00 0.20 0.20 99 1006.7
20260507025218 54 116 0.0 0.0 0.00 0.20 0.20 99 1006.6
20260507024716 54 83 0.0 0.0 0.00 0.20 0.20 99 1006.5
20260507024213 54 158 0.9 2.6 0.00 0.20 0.20 99 1006.5
20260507023708 55 67 0.9 0.9 0.07 0.20 0.20 99 1006.4
20260507023206 55 89 0.0 0.9 0.07 0.20 0.20 99 1006.5
20260507022703 56 91 0.0 0.0 0.00 0.19 0.19 99 1006.6
20260507022158 57 28 2.6 2.6 0.00 0.19 0.19 99 1006.5
20260507021655 57 125 1.7 1.7 0.00 0.19 0.19 99 1006.3
20260507021150 57 245 2.6 4.3 0.00 0.19 0.19 99 1006.4
20260507020649 57 222 4.3 5.2 0.00 0.19 0.19 99 1006.3
20260507020144 57 216 5.2 6.1 0.00 0.19 0.19 99 1006.2
20260507015643 57 237 4.3 5.2 0.00 0.19 0.19 99 1006.3
20260507015140 57 238 4.3 5.2 0.00 0.19 0.19 99 1006.4
20260507014636 57 215 4.3 5.2 0.00 0.19 0.19 99 1006.3
20260507014132 57 237 5.2 6.1 0.00 0.19 0.19 99 1006.5
20260507013630 57 234 5.2 6.1 0.00 0.19 0.19 99 1006.4
20260507013126 57 218 4.3 6.1 0.00 0.19 0.19 99 1006.2
20260507012624 57 222 5.2 6.1 0.00 0.19 0.19 99 1006.4
20260507012119 57 229 6.1 7.0 0.00 0.19 0.19 99 1006.4
20260507011618 57 231 6.1 7.0 0.00 0.19 0.19 99 1006.4
20260507011113 57 228 4.3 7.0 0.00 0.19 0.19 99 1006.4
20260507010609 57 216 4.3 5.2 0.00 0.19 0.19 99 1006.3
20260507010104 57 209 2.6 2.6 0.00 0.19 0.19 99 1006.5
20260507005602 57 194 2.6 4.3 0.00 0.19 0.19 99 1006.4
20260507005058 57 236 3.5 4.3 0.00 0.19 0.19 99 1006.4
20260507004555 57 197 3.5 4.3 0.00 0.19 0.19 99 1006.6
20260507004053 57 223 3.5 4.3 0.00 0.19 0.19 99 1006.3
20260507003548 57 227 4.3 5.2 0.00 0.19 0.19 99 1006.6
20260507003043 57 238 4.3 4.3 0.00 0.19 0.19 99 1006.6
20260507002540 57 211 5.2 6.1 0.00 0.19 0.19 99 1006.5
20260507002036 57 165 3.5 4.3 0.00 0.19 0.19 99 1006.3
20260507001533 57 162 2.6 4.3 0.00 0.19 0.19 99 1006.3
20260507001031 57 231 6.1 6.1 0.00 0.19 0.19 99 1006.3
20260507000527 57 225 3.5 6.1 0.00 0.19 0.19 99 1006.3
20260507000023 57 209 4.3 5.2 0.00 0.19 0.19 99 1006.2
20260506235520 57 202 4.3 5.2 0.00 0.19 0.19 99 1006.1
20260506235015 57 193 5.2 6.1 0.00 0.19 0.19 99 1006.2
20260506234513 57 233 4.3 5.2 0.00 0.19 0.19 99 1006.2
20260506234010 57 206 6.1 7.8 0.00 0.19 0.19 99 1006.4
20260506233507 57 202 6.1 7.0 0.00 0.19 0.19 99 1006.4
20260506233004 57 209 5.2 6.1 0.00 0.19 0.19 99 1006.4
20260506232500 57 191 4.3 6.1 0.00 0.19 0.19 99 1006.4
20260506231955 57 200 7.0 8.7 0.00 0.19 0.19 99 1006.3
20260506231453 57 233 4.3 5.2 0.00 0.19 0.19 99 1006.5
20260506230950 57 233 5.2 6.1 0.00 0.19 0.19 99 1006.4
20260506230445 57 199 7.8 8.7 0.00 0.19 0.19 98 1006.5
20260506225937 57 222 4.3 5.2 0.00 0.19 0.19 98 1006.4
20260506225435 57 220 4.3 6.1 0.00 0.19 0.19 98 1006.6
20260506224931 57 180 4.3 5.2 0.00 0.19 0.19 98 1006.3
20260506224429 57 204 7.0 7.0 0.00 0.19 0.19 99 1006.5
20260506223925 57 218 4.3 6.1 0.00 0.19 0.19 99 1006.4
20260506223420 57 215 6.1 7.8 0.00 0.19 0.19 99 1006.5
20260506222918 58 200 6.1 7.8 0.00 0.19 0.19 99 1006.6
20260506222414 58 217 6.1 9.6 0.00 0.19 0.19 99 1006.6
20260506221912 58 245 1.7 2.6 0.00 0.19 0.19 99 1006.6